Olympia, WA

12:30 AM PDT on August 29, 2016 (GMT -0700)
Olympia

Weather History for KOLM - October, 2011

Change the Weather History Date:

Thursday, October 20, 2011

  Actual Average Record
Temperature  
Mean Temperature 54 °F 49 °F  
Max Temperature 61 °F 59 °F 71 °F (1987)
Min Temperature 47 °F 40 °F 23 °F (1949)
Degree Days  
Heating Degree Days 11 16  
Month to date heating degree days 257 265  
Since 1 July heating degree days 576 605  
Cooling Degree Days 0 0  
Month to date cooling degree days 0 0  
Year to date cooling degree days 59 106  
Growing Degree Days 3 (Base 50)    
Moisture  
Dew Point 49 °F    
Average Humidity 82    
Maximum Humidity 96    
Minimum Humidity 67    
Precipitation  
Precipitation 0.00 in 0.17 in 4.12 in (2003)
Month to date precipitation 2.51 2.43  
Year to date precipitation 35.47 31.74  
Sea Level Pressure  
Sea Level Pressure 30.10 in    
Wind  
Wind Speed 2 mph (SW)    
Max Wind Speed 10 mph    
Max Gust Speed 13 mph    
Visibility 10 miles    
Events      
T = Trace of Precipitation, MM = Missing Value Source: NWS Daily Summary

Daily Weather History Graph

Daily Weather History Graph

Search for Another Location

Airport or City:

Trip Planner

Search our weather history database for the weather conditions in past years. The results will help you decide how hot, cold, wet, or windy it might be!

Date:

Astronomy

Oct. 20, 2011 Rise Set
Actual Time 7:36 AM PDT 6:15 PM PDT
Civil Twilight 7:05 AM PDT 6:46 PM PDT
Nautical Twilight 6:30 AM PDT 7:21 PM PDT
Astronomical Twilight 5:54 AM PDT 7:56 PM PDT
Moon 12:00 AM PDT (10/20) 2:52 PM PDT (10/20)
Length of Visible Light 11h 40m
Length of Day
10h 39m
Last Quarter, 43% of the Moon is Illuminated
Oct 20
Last Quarter
Oct 26
New
Nov 2
First Quarter
Nov 10
Full
Nov 18
Last Quarter

Hourly Weather History & Observations

Time (PDT) Temp. Dew Point Humidity Pressure Visibility Wind Dir Wind Speed Gust Speed Precip Events Conditions
12:13 AM 51.8 °F 48.2 °F 88% 30.11 in 10.0 mi SW 3.5 mph - N/A   Overcast
12:54 AM 51.1 °F 48.9 °F 92% 30.10 in 10.0 mi South 3.5 mph - N/A   Overcast
1:04 AM 50.0 °F 48.2 °F 94% 30.10 in 10.0 mi South 4.6 mph - N/A   Overcast
1:54 AM 50.0 °F 48.9 °F 96% 30.11 in 10.0 mi SW 3.5 mph - N/A   Overcast
2:38 AM 50.0 °F 48.2 °F 94% 30.10 in 10.0 mi SSW 6.9 mph - N/A   Overcast
2:52 AM 51.8 °F 48.2 °F 88% 30.11 in 10.0 mi SSW 5.8 mph - N/A   Overcast
2:54 AM 51.8 °F 48.2 °F 88% 30.11 in 10.0 mi SSW 5.8 mph - N/A   Overcast
3:54 AM 50.0 °F 48.2 °F 94% 30.10 in 10.0 mi Calm Calm - N/A   Overcast
4:54 AM 50.0 °F 46.9 °F 89% 30.10 in 10.0 mi Calm Calm - N/A   Mostly Cloudy
5:23 AM 48.2 °F 46.4 °F 93% 30.09 in 10.0 mi Calm Calm - N/A   Overcast
5:54 AM 50.0 °F 48.0 °F 93% 30.09 in 10.0 mi West 3.5 mph - N/A   Overcast
6:54 AM 50.0 °F 48.0 °F 93% 30.10 in 10.0 mi SSW 3.5 mph - N/A   Overcast
7:54 AM 48.9 °F 46.9 °F 93% 30.10 in 10.0 mi SW 5.8 mph - N/A   Mostly Cloudy
8:54 AM 51.1 °F 48.0 °F 89% 30.11 in 10.0 mi Calm Calm - N/A   Overcast
9:54 AM 54.0 °F 50.0 °F 86% 30.12 in 10.0 mi SSW 6.9 mph - N/A   Overcast
10:54 AM 57.0 °F 48.9 °F 74% 30.12 in 10.0 mi SW 5.8 mph - N/A   Overcast
11:54 AM 57.9 °F 48.9 °F 72% 30.12 in 10.0 mi SSW 3.5 mph - N/A   Overcast
12:54 PM 59.0 °F 48.9 °F 69% 30.11 in 10.0 mi Calm Calm - N/A   Overcast
1:54 PM 59.0 °F 48.9 °F 69% 30.10 in 10.0 mi Calm Calm - N/A   Overcast
2:54 PM 59.0 °F 48.9 °F 69% 30.09 in 10.0 mi Calm Calm - N/A   Overcast
3:50 PM 60.8 °F 50.0 °F 68% 30.09 in 10.0 mi Calm Calm - N/A   Scattered Clouds
3:54 PM 60.1 °F 50.0 °F 69% 30.09 in 10.0 mi Calm Calm - N/A   Partly Cloudy
4:54 PM 59.0 °F 50.0 °F 72% 30.08 in 10.0 mi NE 4.6 mph - N/A   Mostly Cloudy
5:54 PM 57.0 °F 51.1 °F 81% 30.09 in 10.0 mi North 3.5 mph - N/A   Mostly Cloudy
6:54 PM 55.9 °F 50.0 °F 80% 30.08 in 10.0 mi Calm Calm - N/A   Overcast
7:54 PM 53.1 °F 50.0 °F 89% 30.10 in 10.0 mi NNW 4.6 mph - N/A   Partly Cloudy
8:54 PM 53.1 °F 50.0 °F 89% 30.10 in 10.0 mi Calm Calm - N/A   Overcast
9:54 PM 51.1 °F 50.0 °F 96% 30.10 in 10.0 mi Calm Calm - N/A   Mostly Cloudy
10:28 PM 46.4 °F 46.4 °F 100% 30.09 in 7.0 mi Calm Calm - N/A   Scattered Clouds
10:37 PM 50.0 °F 48.2 °F 94% 30.09 in 4.0 mi NNE 3.5 mph - N/A   Mostly Cloudy
10:54 PM 51.1 °F 50.0 °F 96% 30.11 in 8.0 mi Calm Calm - N/A   Overcast
11:54 PM 51.1 °F 50.0 °F 96% 30.12 in 7.0 mi NNE 3.5 mph - N/A   Overcast